Temp
62 61 61 62 61 61 61 61 61 61 61 61 61 61 61 61 61 59 54 60 63 64 64 65 65 65 67 66 67 67 57 54 57 58 63 70 67 73 73 72 70 72 73 71 73
61 61 61 61 61 61 61 61 61 61 61 61 61 61 61 61 58 55 62 65 65 65 60 59 58 61 61 63 64 60 55 57 64 65 64 68 68 71 69 70 69 67 66 71 70
60 60 60 60 61 61 61 61 60 60 61 61 61 61 60 61 53 54 63 64 65 64 61 61 60 58 57 62 62 61 54 62 62 65 68 66 67 70 67 65 72 70 64 67 69
60 60 60 60 60 60 61 61 60 60 61 61 61 61 60 58 45 57 62 62 63 64 60 57 56 54 54 54 62 54 61 60 62 65 64 63 67 66 68 70 70 72 71 68 65
59 59 59 59 60 60 61 61 61 60 60 61 61 60 58 50 50 61 61 62 64 61 56 54 52 52 50 52 55 54 59 61 60 58 61 63 62 63 66 73 73 69 68 67 66
59 58 58 59 59 60 60 60 60 60 60 60 60 60 53 45 59 61 60 60 60 59 55 56 52 53 50 50 51 51 53 55 57 57 60 57 61 63 67 73 71 66 68 68 65
58 58 58 58 59 59 59 59 59 59 60 60 60 59 50 49 61 62 59 57 58 57 53 55 55 53 51 49 52 51 48 54 56 57 58 61 55 58 67 70 68 70 67 67 67
57 57 57 58 58 58 59 59 58 59 59 60 59 56 47 59 63 58 58 56 57 57 56 57 57 52 50 52 50 47 49 44 57 57 58 59 50 64 70 69 67 70 71 68 67
57 57 57 57 58 58 58 58 58 58 59 60 56 52 45 60 54 57 57 53 54 54 56 58 55 49 48 43 41 43 40 43 48 58 56 55 52 62 68 67 66 69 72 71 69
56 56 57 57 57 58 58 58 57 58 58 59 56 46 52 47 54 55 57 55 51 51 49 49 48 43 43 41 35 40 38 41 44 51 54 52 53 60 63 63 64 68 71 70 71
57 56 57 57 57 58 56 56 52 49 50 44 44 45 48 54 56 54 55 53 51 47 41 43 38 36 41 43 45 41 39 40 44 50 46 49 51 56 60 60 62 65 66 69 70
56 56 57 57 57 57 56 49 48 48 39 48 47 46 50 53 45 50 55 46 44 39 42 37 33 43 44 42 39 39 37 37 44 47 46 47 47 54 57 58 60 63 65 67 69
56 56 56 56 57 55 52 49 54 52 41 44 46 45 47 50 45 46 50 46 40 38 38 34 42 45 41 39 36 38 36 37 37 44 46 43 41 47 54 58 60 62 65 68 68
56 56 56 56 54 51 49 52 53 51 34 38 43 46 49 49 43 53 52 47 40 38 40 38 45 40 40 36 39 33 43 40 37 35 31 45 32 47 54 54 57 60 63 66 68
55 55 55 54 51 50 50 53 53 49 28 41 42 52 50 43 46 45 52 45 39 39 38 39 38 37 35 39 42 37 44 40 40 35 34 36 31 42 51 49 54 59 63 67 69
55 55 54 52 51 51 52 52 50 33 28 32 41 40 41 43 44 47 45 47 45 38 39 38 47 42 42 45 44 44 38 37 38 34 23 34 33 38 46 49 53 60 63 66 69
55 54 53 52 48 52 51 48 33 31 35 33 32 39 38 37 40 41 39 37 35 31 30 37 38 42 43 35 40 37 32 25 23 23 24 41 35 37 50 54 56 58 62 67 69
54 52 50 51 52 51 50 39 30 23 26 36 37 38 34 41 40 41 38 35 40 35 32 30 30 38 42 38 36 34 34 27 19 22 29 40 30 40 53 57 58 59 62 65 64
52 48 48 49 51 51 45 31 31 28 33 32 37 31 31 38 39 40 38 37 36 36 31 30 32 41 43 43 38 33 29 38 27 29 27 36 42 50 49 50 52 52 53 57 59
48 46 46 48 50 49 35 32 30 35 37 38 29 33 29 34 35 38 36 39 36 40 39 33 28 34 36 37 37 35 40 28 29 20 21 31 31 32 36 41 46 45 47 51 54
46 41 45 47 50 43 32 30 30 39 39 34 32 31 35 32 34 34 35 41 40 43 41 34 30 32 34 32 32 33 32 35 37 32 25 23 31 34 35 39 42 43 46 49 50
42 33 45 47 35 25 30 28 37 38 39 38 38 34 32 34 32 33 34 40 48 43 33 36 32 29 32 35 39 42 37 37 29 26 30 28 28 35 37 38 40 41 44 48 49
34 37 45 46 31 30 28 33 36 37 38 39 37 37 39 32 30 33 37 45 45 41 35 36 31 28 31 33 36 33 37 39 38 33 27 24 28 34 38 37 41 42 44 45 47
37 32 36 39 35 32 27 28 32 38 38 40 39 41 38 33 37 32 35 41 43 42 41 38 32 31 28 29 32 31 33 37 34 28 30 31 30 33 33 33 35 42 44 45 46
34 32 31 30 30 33 34 34 33 31 38 40 37 38 36 28 26 29 35 38 41 40 41 38 31 32 33 33 33 31 30 30 31 34 29 31 30 31 33 34 34 40 41 41 41
32 31 29 27 32 33 33 31 33 35 36 35 34 38 37 33 35 30 33 35 34 38 37 39 31 32 31 32 33 30 31 32 30 30 31 31 29 34 35 35 35 34 37 37 38
36 37 40 31 31 32 31 34 34 38 39 40 39 36 34 38 41 41 40 40 38 33 31 32 31 30 28 32 31 29 29 30 30 31 31 29 32 34 33 33 33 34 35 34 36
MSLP
1024.29 1024.26 1024.33 1024.14 1023.78 1023.42 1023.06 1022.75 1022.78 1022.49 1022.32 1022.11 1021.79 1021.59 1021.41 1021.06 1020.61 1020.26 1020.05 1020.13 1019.48 1019.16 1019.07 1018.49 1017.89 1017.45 1017.10 1016.23 1016.17 1015.84 1014.84 1013.43 1013.20 1013.11 1012.58 1012.55 1012.14 1012.05 1012.20 1011.86 1012.29 1012.63 1012.75 1013.31 1014.19
1024.42 1024.28 1024.01 1023.95 1023.71 1023.32 1023.01 1022.84 1022.83 1022.59 1022.49 1022.25 1021.91 1021.60 1021.41 1021.13 1020.59 1020.10 1020.16 1019.83 1019.37 1019.04 1019.23 1018.70 1018.01 1017.61 1016.87 1016.05 1015.89 1015.60 1014.74 1013.67 1013.69 1013.62 1013.19 1012.86 1012.80 1012.34 1012.39 1012.05 1012.34 1012.96 1013.67 1013.72 1014.55
1024.44 1024.19 1023.94 1023.69 1023.43 1023.17 1022.93 1022.88 1022.51 1022.59 1022.27 1022.03 1021.97 1021.69 1021.56 1021.22 1020.61 1020.18 1020.18 1019.91 1019.59 1019.46 1019.41 1019.17 1018.68 1017.96 1017.10 1016.29 1015.74 1015.27 1014.53 1014.23 1014.47 1014.26 1013.82 1013.40 1013.11 1012.88 1012.53 1012.14 1012.07 1012.37 1013.57 1014.20 1014.29
1024.41 1024.14 1023.83 1023.66 1023.56 1023.19 1022.66 1022.74 1022.64 1022.27 1021.99 1021.97 1021.96 1021.73 1021.38 1021.18 1021.03 1020.64 1020.39 1020.05 1019.76 1019.57 1019.52 1019.29 1018.77 1018.15 1017.28 1016.50 1015.96 1015.63 1015.11 1015.05 1014.76 1014.68 1014.45 1013.85 1013.57 1012.90 1012.69 1012.33 1012.97 1012.95 1013.46 1014.26 1014.49
1024.30 1024.04 1023.81 1023.58 1023.21 1022.79 1022.35 1022.18 1022.12 1022.10 1022.03 1021.87 1021.88 1021.77 1021.39 1021.23 1021.06 1020.88 1020.54 1020.31 1019.92 1019.81 1019.72 1019.53 1019.19 1018.63 1017.94 1017.60 1017.02 1016.29 1015.54 1015.43 1015.39 1015.33 1014.92 1014.60 1013.94 1013.44 1012.67 1012.56 1013.03 1013.47 1013.79 1014.22 1014.70
1024.30 1024.22 1023.88 1023.70 1023.28 1022.76 1022.30 1022.22 1022.22 1021.97 1021.95 1021.90 1021.90 1021.89 1021.79 1021.44 1021.24 1020.99 1020.75 1020.66 1020.58 1020.20 1020.09 1019.92 1019.72 1019.54 1019.02 1018.38 1017.81 1017.64 1016.83 1016.16 1015.75 1015.45 1015.14 1014.72 1013.82 1013.52 1012.54 1012.55 1012.78 1013.37 1013.66 1013.94 1014.24
1024.35 1024.31 1023.95 1023.79 1023.41 1023.10 1022.68 1022.17 1022.14 1022.07 1022.10 1022.17 1022.00 1021.91 1021.80 1021.53 1021.24 1021.09 1021.01 1020.97 1020.94 1020.77 1020.48 1020.50 1020.33 1019.87 1019.45 1018.84 1018.77 1018.06 1017.35 1016.38 1015.51 1015.35 1014.81 1014.66 1013.04 1012.24 1012.54 1012.59 1012.38 1012.52 1013.26 1013.75 1014.05
1024.31 1024.14 1023.92 1023.84 1023.50 1023.17 1022.89 1022.45 1022.14 1022.08 1022.18 1022.21 1022.22 1022.10 1021.43 1021.39 1021.18 1021.11 1021.01 1020.97 1021.08 1021.03 1020.98 1020.83 1020.62 1020.24 1019.90 1019.66 1018.94 1018.12 1017.49 1016.12 1014.53 1014.71 1014.66 1014.51 1010.38 1011.50 1011.82 1011.79 1011.53 1011.59 1012.03 1012.87 1013.35
1024.31 1024.14 1024.04 1023.91 1023.86 1023.12 1022.78 1022.28 1022.17 1022.08 1022.05 1022.17 1022.43 1022.19 1021.47 1021.31 1021.18 1021.26 1021.30 1021.21 1021.16 1021.17 1021.20 1021.06 1020.82 1020.52 1020.34 1019.72 1019.16 1018.47 1017.01 1016.22 1015.27 1014.62 1014.41 1013.73 1011.61 1011.63 1011.87 1011.72 1011.27 1010.97 1010.99 1011.47 1012.20
1024.03 1023.87 1023.82 1023.52 1023.46 1023.21 1022.76 1022.39 1022.11 1022.14 1022.16 1022.09 1022.42 1022.64 1021.56 1021.53 1021.42 1021.50 1021.53 1021.42 1021.26 1021.24 1021.30 1021.28 1021.10 1020.65 1020.38 1019.86 1018.65 1017.99 1017.75 1017.02 1015.88 1015.07 1014.50 1013.43 1012.58 1012.11 1011.95 1011.50 1011.05 1010.62 1010.50 1010.72 1010.86
1024.01 1023.78 1023.73 1023.59 1023.35 1023.12 1022.64 1022.81 1022.66 1022.66 1022.70 1022.75 1022.84 1022.46 1021.93 1021.73 1021.56 1021.33 1021.44 1021.34 1021.30 1021.33 1021.11 1021.55 1021.36 1020.45 1019.94 1019.88 1019.41 1019.04 1018.66 1017.72 1017.14 1016.36 1015.61 1013.88 1013.06 1012.20 1011.95 1011.53 1010.84 1010.43 1010.31 1010.11 1010.16
1023.79 1023.74 1023.81 1023.32 1023.01 1022.99 1022.86 1023.02 1024.11 1024.92 1023.76 1023.06 1022.99 1022.83 1022.34 1022.07 1021.77 1021.35 1021.48 1021.44 1021.32 1021.13 1021.29 1021.73 1020.70 1020.02 1020.17 1020.26 1019.97 1019.41 1018.94 1018.18 1017.74 1017.39 1016.71 1014.95 1013.15 1012.88 1011.92 1011.49 1011.08 1010.39 1009.95 1009.71 1009.73
1023.77 1023.75 1023.53 1023.50 1023.30 1023.39 1023.57 1024.09 1024.24 1024.45 1024.27 1023.27 1023.02 1022.66 1022.34 1022.26 1021.68 1021.23 1021.47 1021.34 1021.39 1021.18 1021.05 1020.79 1019.74 1019.73 1019.93 1019.83 1019.45 1018.97 1018.72 1018.47 1018.10 1017.67 1017.07 1016.01 1012.87 1011.96 1011.22 1010.99 1010.75 1010.16 1009.56 1009.22 1009.15
1023.49 1023.70 1023.61 1023.37 1023.50 1023.74 1024.14 1024.53 1024.41 1024.57 1024.21 1023.40 1022.76 1022.55 1022.22 1022.00 1021.50 1021.00 1021.24 1021.59 1021.54 1021.17 1020.67 1020.31 1019.60 1019.59 1019.59 1019.28 1019.35 1018.63 1018.27 1018.52 1018.38 1018.39 1016.80 1015.79 1012.55 1010.61 1009.81 1009.63 1009.23 1009.03 1008.75 1008.53 1008.42
1023.48 1023.38 1023.53 1023.28 1023.61 1023.91 1024.46 1024.58 1024.28 1024.48 1024.20 1023.43 1022.64 1022.22 1021.87 1022.03 1021.49 1021.11 1021.19 1021.48 1021.34 1021.06 1021.19 1019.68 1019.37 1019.29 1019.01 1018.25 1018.70 1018.37 1018.49 1018.61 1018.50 1017.98 1017.52 1015.94 1015.30 1010.12 1009.90 1009.04 1007.85 1007.43 1007.41 1007.32 1007.35
1023.43 1023.36 1023.72 1023.90 1024.01 1024.12 1024.14 1024.31 1024.26 1024.48 1024.10 1023.68 1023.01 1022.50 1022.04 1021.49 1021.23 1021.01 1021.26 1021.57 1021.30 1021.01 1020.54 1019.72 1018.96 1018.83 1017.79 1018.04 1018.51 1018.75 1019.16 1019.18 1018.82 1018.44 1016.71 1014.49 1014.60 1010.25 1009.25 1008.60 1007.94 1006.90 1006.38 1006.15 1006.28
1023.25 1023.21 1023.70 1023.69 1023.74 1023.94 1024.03 1023.92 1024.20 1024.40 1024.81 1024.33 1023.65 1023.07 1022.55 1021.60 1021.05 1020.91 1020.95 1021.17 1021.17 1020.89 1020.14 1019.21 1017.90 1017.82 1018.21 1018.50 1018.62 1019.09 1019.23 1018.75 1018.31 1017.27 1014.86 1013.71 1013.18 1010.54 1008.43 1007.72 1006.96 1006.25 1006.05 1005.38 1005.35
1023.34 1023.47 1024.06 1023.95 1024.26 1024.01 1023.82 1023.64 1024.42 1025.36 1025.07 1024.77 1023.95 1023.42 1022.78 1021.53 1021.01 1020.79 1020.69 1020.65 1020.67 1020.91 1020.32 1019.28 1017.44 1017.51 1017.93 1017.93 1017.79 1018.01 1018.22 1017.82 1016.87 1015.93 1014.06 1012.96 1011.02 1008.90 1008.28 1007.69 1007.56 1006.92 1006.42 1005.55 1005.40
1023.39 1024.14 1024.38 1024.32 1024.36 1023.80 1024.00 1024.01 1024.69 1025.24 1025.17 1024.96 1023.95 1023.57 1022.79 1021.93 1021.48 1020.82 1020.54 1020.49 1020.78 1020.87 1021.03 1019.95 1018.15 1017.42 1017.63 1017.61 1018.14 1017.71 1017.60 1017.38 1017.06 1016.05 1014.53 1012.15 1010.08 1008.92 1008.97 1008.62 1008.87 1008.12 1007.71 1006.50 1006.08
1023.46 1024.31 1025.32 1024.99 1025.19 1024.39 1024.48 1025.02 1025.25 1025.26 1025.11 1024.51 1023.98 1024.01 1023.24 1022.33 1021.70 1020.94 1020.58 1020.61 1020.75 1021.00 1021.02 1020.53 1018.97 1017.79 1018.06 1018.04 1017.96 1017.88 1017.33 1017.35 1016.89 1015.74 1013.84 1012.05 1011.64 1010.98 1011.03 1010.27 1009.50 1009.47 1008.71 1007.98 1007.13
1023.56 1024.27 1024.46 1024.81 1024.61 1025.14 1024.84 1025.49 1025.75 1025.11 1025.09 1024.83 1024.18 1023.93 1023.24 1022.90 1022.32 1021.49 1020.86 1020.48 1020.76 1020.23 1020.78 1020.46 1019.87 1018.11 1017.97 1017.63 1017.03 1017.48 1016.77 1016.26 1015.75 1015.38 1014.32 1012.99 1012.13 1012.82 1012.29 1011.88 1010.97 1010.76 1009.65 1009.22 1008.20
1023.87 1025.22 1025.73 1024.98 1025.38 1026.47 1025.84 1025.21 1025.65 1024.91 1024.89 1024.49 1024.20 1024.01 1023.64 1023.21 1022.57 1021.95 1021.10 1020.50 1020.37 1020.54 1020.52 1020.37 1019.64 1018.21 1017.09 1016.97 1016.86 1016.10 1015.65 1015.27 1015.18 1014.93 1014.88 1014.67 1013.42 1013.65 1013.55 1013.24 1012.52 1011.58 1011.18 1010.66 1009.58
1024.41 1024.77 1025.74 1025.00 1025.93 1026.21 1026.26 1025.28 1025.50 1024.69 1024.39 1024.09 1023.72 1023.87 1023.45 1023.46 1023.12 1022.41 1021.46 1020.74 1020.84 1020.70 1020.64 1020.47 1019.68 1018.21 1016.64 1017.02 1016.76 1016.40 1015.69 1014.97 1015.14 1015.18 1014.49 1015.11 1014.24 1014.48 1014.32 1013.91 1013.67 1013.10 1012.08 1011.43 1010.70
1024.54 1025.30 1025.49 1025.50 1025.87 1025.31 1025.77 1025.47 1025.15 1024.47 1024.17 1023.83 1023.52 1023.41 1023.38 1023.26 1023.17 1022.57 1021.91 1021.13 1021.02 1020.76 1020.74 1020.56 1019.56 1018.89 1018.31 1017.94 1017.33 1016.48 1016.03 1015.33 1015.48 1015.43 1014.59 1014.46 1015.05 1015.25 1015.15 1015.40 1014.90 1013.60 1012.48 1012.01 1011.90
1022.97 1025.20 1024.95 1025.62 1025.57 1024.70 1024.87 1024.86 1024.61 1024.18 1024.09 1023.72 1023.41 1023.35 1023.29 1023.39 1023.43 1022.81 1022.18 1021.68 1021.25 1021.09 1020.68 1020.31 1019.32 1018.91 1018.49 1018.06 1017.56 1017.11 1016.50 1015.61 1014.66 1014.96 1015.76 1015.13 1015.74 1016.48 1016.47 1016.11 1015.41 1014.41 1013.82 1013.40 1013.29
1022.87 1024.62 1025.56 1025.31 1024.92 1024.29 1024.58 1024.43 1023.89 1023.65 1023.54 1023.35 1023.22 1023.10 1023.39 1023.23 1022.85 1022.71 1022.52 1022.33 1021.98 1021.49 1020.96 1020.47 1019.58 1018.84 1018.12 1017.89 1017.59 1017.31 1017.09 1016.76 1016.23 1016.30 1016.36 1016.51 1016.62 1017.50 1017.35 1017.01 1016.15 1015.67 1015.44 1015.07 1015.09
1022.41 1023.11 1023.57 1025.07 1024.68 1024.14 1023.70 1023.35 1023.20 1023.23 1023.06 1022.85 1022.87 1023.28 1023.27 1022.92 1022.80 1022.67 1022.52 1022.59 1022.68 1022.85 1021.98 1021.06 1020.28 1019.21 1018.04 1017.81 1017.75 1017.80 1018.33 1018.12 1017.92 1017.62 1017.28 1017.10 1017.82 1017.78 1017.62 1017.19 1017.32 1017.15 1016.63 1016.59 1016.73
Wind_Speed
11 11 12 13 12 10 9 8 8 9 8 9 10 11 12 12 13 3 5 7 12 10 8 10 4 4 6 7 5 2 8 13 18 13 12 2 3 1 4 4 3 5 2 1 21
11 12 12 13 12 10 9 8 7 8 9 10 11 11 12 11 5 4 3 13 11 7 3 4 4 3 7 13 7 10 13 15 6 10 12 8 8 10 5 7 6 4 3 13 22
12 12 12 13 14 12 11 8 6 7 8 9 10 11 10 10 2 3 11 13 10 3 2 4 5 3 9 8 15 12 17 13 6 10 13 13 10 4 6 8 9 10 10 17 23
12 13 14 15 15 14 12 10 7 7 7 10 10 11 9 5 2 4 13 10 6 2 2 2 1 4 6 13 13 12 15 11 14 15 11 8 6 11 8 9 6 8 12 18 21
12 12 14 14 16 14 11 9 8 7 7 8 8 9 4 4 1 5 11 14 8 2 6 3 0 1 6 3 7 13 10 8 5 4 10 10 14 15 15 13 9 3 10 17 18
12 13 14 15 15 13 10 7 7 5 5 6 6 3 3 4 0 1 10 9 10 6 4 4 3 3 0 2 5 4 7 11 9 8 8 10 17 14 13 13 9 2 8 13 18
11 12 13 13 14 14 12 8 7 5 4 6 5 2 4 6 2 3 8 4 5 3 2 2 3 2 1 2 3 3 9 11 14 15 14 8 21 23 17 18 19 15 6 9 13
9 9 10 12 12 13 12 10 7 6 4 5 4 1 4 1 5 4 2 1 2 3 3 4 2 1 3 3 2 3 6 10 10 17 9 15 26 11 12 19 22 23 16 12 14
7 8 11 12 13 13 12 11 6 4 4 3 1 2 4 3 2 3 3 3 3 3 1 3 1 0 2 3 3 4 6 9 10 10 9 18 15 8 14 18 16 17 18 16 15
5 8 10 12 15 15 10 7 4 2 1 1 1 5 1 3 2 2 2 2 2 3 3 1 2 4 4 5 4 4 5 5 10 0 13 21 20 19 15 11 14 20 20 17 17
6 8 10 13 16 11 5 2 2 2 4 3 4 4 2 4 3 2 1 2 2 1 1 3 4 8 7 10 9 3 6 10 6 7 10 16 18 18 12 13 18 19 17 16 17
6 8 10 12 13 9 2 5 4 2 7 2 6 6 6 4 5 3 3 3 2 3 4 3 8 11 9 8 10 13 14 16 16 16 14 17 23 19 22 17 18 17 20 21 18
5 7 9 12 7 4 5 5 3 1 4 3 3 3 3 2 2 4 6 1 4 5 7 7 5 2 6 7 11 13 14 13 14 11 15 17 27 25 26 23 21 22 22 21 21
4 6 8 13 1 2 3 2 1 1 2 5 3 2 1 3 4 3 6 2 3 4 5 8 7 9 12 14 11 14 7 13 13 9 7 0 12 14 13 20 22 22 23 23 22
1 4 6 7 1 2 2 2 0 2 2 3 2 2 3 3 8 2 2 3 6 5 2 3 5 7 12 13 9 7 8 9 12 14 13 19 10 7 14 19 23 18 20 23 25
1 3 3 2 1 2 1 0 2 1 2 4 4 5 8 1 2 1 2 1 2 3 9 17 8 8 16 10 12 2 7 12 9 9 9 18 16 14 17 19 22 18 21 21 22
3 3 2 1 2 1 2 0 2 1 2 5 4 8 8 3 3 1 2 3 3 5 3 5 13 10 10 8 10 12 5 4 7 8 9 7 14 20 18 19 24 22 19 23 19
5 5 3 3 2 2 1 2 1 2 4 3 4 9 5 6 1 4 4 3 2 4 4 5 8 7 9 9 6 15 15 6 7 6 8 6 11 15 19 21 21 23 20 21 15
8 2 1 4 2 1 1 3 2 5 1 4 4 3 4 3 5 5 4 4 1 1 3 6 6 0 6 7 4 4 12 6 3 5 7 10 16 12 11 4 9 8 8 10 10
3 2 2 7 4 1 2 1 2 3 2 4 3 1 4 7 7 9 3 4 3 4 4 4 10 2 1 2 6 2 3 3 4 5 9 7 7 5 12 13 11 11 10 10 6
3 3 3 3 0 2 2 3 4 6 5 2 1 3 4 5 7 5 4 2 2 8 7 4 5 1 3 6 9 5 5 7 4 6 4 5 4 2 6 10 9 9 12 11 10
3 1 3 2 1 2 2 6 3 4 3 4 3 3 3 5 4 4 4 3 5 8 9 2 5 7 5 1 5 11 7 12 5 4 5 7 8 7 8 8 8 12 8 10 12
3 3 1 1 3 3 1 2 4 5 5 5 4 6 5 2 4 5 5 3 4 8 3 5 3 7 3 3 2 5 11 11 5 3 11 4 2 5 10 11 8 7 9 12 15
4 2 1 2 1 4 4 3 4 4 3 4 3 2 3 2 4 6 7 5 9 6 9 5 3 4 6 4 6 4 6 16 12 5 4 7 3 5 8 8 10 12 15 17 17
3 3 1 5 7 5 4 7 4 4 5 4 2 7 4 3 3 5 4 9 5 4 10 5 4 2 2 6 5 12 14 14 18 17 5 6 7 8 8 7 12 13 14 16 18
6 5 1 2 4 8 5 6 8 4 7 5 6 5 6 6 7 4 5 4 4 7 9 8 3 4 3 3 8 11 16 15 9 6 6 3 10 5 5 6 11 13 15 16 16
2 3 2 5 4 5 6 7 9 7 6 2 6 3 9 13 9 10 9 11 12 11 6 5 6 3 2 6 3 4 12 9 6 11 5 7 5 6 9 13 13 11 13 14 14
Wind_Direction
15 6 346 341 344 340 339 340 342 341 357 343 341 343 339 332 324 342 48 327 324 246 326 307 265 241 221 208 175 161 229 235 232 233 231 192 274 269 331 207 204 193 305 40 145
3 356 343 336 333 329 331 334 336 338 338 340 340 345 346 338 325 71 43 352 2 55 325 319 209 218 212 212 190 202 225 242 232 257 258 256 299 294 285 225 204 197 60 138 154
354 344 338 325 317 313 310 316 320 327 328 331 335 345 337 323 256 92 353 336 348 30 5 318 296 249 222 218 206 206 233 226 233 251 260 263 273 286 282 257 253 232 161 162 165
346 341 348 339 328 319 318 304 293 300 313 320 334 349 330 305 300 15 342 341 5 56 351 341 278 204 223 212 222 241 228 252 244 245 265 256 298 263 267 269 15 355 174 172 182
335 359 347 339 335 327 322 302 297 287 305 331 340 360 341 322 5 8 31 14 34 35 32 21 88 219 207 254 252 239 246 248 231 284 275 273 265 268 268 274 304 338 173 192 203
3 353 351 345 349 353 352 344 328 325 328 330 352 27 357 313 81 249 359 353 20 26 36 19 32 355 266 291 273 353 295 272 274 272 269 275 266 260 259 256 277 276 239 211 206
1 352 351 348 354 357 3 8 357 354 349 341 12 69 282 288 314 270 321 339 319 324 354 11 337 298 252 239 338 266 278 264 247 239 248 263 256 241 246 255 263 262 255 232 222
358 351 351 350 350 353 347 349 342 347 355 355 38 99 273 285 308 318 329 30 10 317 282 349 305 24 299 324 281 251 234 245 230 221 233 223 256 242 240 247 249 253 250 235 219
357 358 353 351 342 338 331 331 295 333 343 346 290 294 314 303 4 19 14 81 85 46 64 339 312 1 191 223 246 222 261 240 274 234 250 223 266 240 254 253 261 260 251 249 240
359 357 350 349 340 333 342 24 76 64 69 128 254 261 278 28 346 21 64 109 68 109 121 14 15 243 224 207 262 245 233 241 253 84 243 249 255 260 263 256 263 258 256 243 243
359 351 346 349 348 353 350 232 4 103 28 332 317 289 301 333 264 223 217 169 160 171 250 84 254 241 267 243 270 311 296 284 287 309 299 262 266 260 238 262 248 253 259 256 252
359 350 341 347 344 350 358 65 73 337 320 305 294 267 282 284 288 277 191 240 223 267 149 173 249 280 240 249 251 260 263 264 272 258 269 281 272 259 257 254 258 255 257 259 256
355 347 346 340 347 34 51 67 69 136 284 308 310 313 350 185 270 288 186 198 256 253 222 228 258 353 193 229 236 245 257 258 259 296 272 281 278 264 253 254 247 253 258 252 248
1 352 354 338 107 336 57 80 325 297 302 347 351 70 237 251 260 246 210 248 215 286 266 259 269 262 240 255 253 275 238 254 267 265 260 78 282 279 248 245 242 242 247 250 243
14 22 24 31 109 55 55 307 289 212 287 6 305 345 283 268 315 161 176 162 246 230 220 301 237 223 229 233 205 257 262 258 266 257 267 252 261 267 239 247 248 240 237 245 242
103 51 53 83 49 64 26 11 206 274 326 337 307 347 332 196 263 304 193 227 289 261 228 258 259 257 244 254 232 217 231 256 263 248 235 241 221 273 245 243 264 249 236 239 244
132 96 74 157 89 65 2 270 16 60 11 341 335 334 315 276 293 221 274 233 265 290 236 253 251 236 237 253 236 214 181 216 219 209 251 258 225 240 276 243 246 263 250 238 241
103 77 31 55 7 22 220 86 83 97 266 327 309 319 310 332 282 312 286 284 242 239 289 318 310 175 161 216 233 203 202 212 245 244 287 235 239 240 247 262 264 269 273 256 266
114 50 69 23 7 76 241 78 204 193 187 327 343 340 316 312 322 338 286 291 217 150 310 298 254 356 220 221 201 141 210 211 289 217 258 252 261 275 351 204 315 326 308 276 266
97 89 31 344 345 58 64 116 177 206 224 250 58 322 311 328 322 345 299 75 19 349 126 288 288 194 112 106 166 241 115 171 164 273 271 255 323 308 342 323 330 338 359 331 332
89 145 118 350 230 5 162 184 235 223 219 223 153 280 285 329 323 301 297 340 265 337 331 252 231 244 176 207 183 170 198 222 248 228 280 295 265 240 322 322 351 355 16 353 9
118 64 7 307 112 304 176 167 204 223 190 243 251 266 267 322 274 294 274 277 335 340 320 287 296 285 291 294 298 226 224 206 214 234 252 304 284 354 16 22 17 28 13 22 38
114 109 63 284 224 211 287 168 249 204 216 204 224 207 199 248 302 249 298 326 358 332 315 2 265 299 244 174 175 220 228 231 228 254 230 249 298 360 26 12 32 44 48 43 41
118 136 66 63 255 157 166 195 233 211 248 219 265 255 258 272 233 284 291 301 331 276 312 293 249 289 312 344 321 311 328 240 208 250 303 252 110 13 11 13 8 29 37 39 38
98 242 140 174 227 177 180 167 184 204 223 217 228 230 216 277 297 248 268 311 305 356 333 347 280 268 229 80 57 36 17 6 213 220 294 38 79 17 350 6 22 30 36 38 30
147 148 201 127 161 138 181 209 202 187 179 212 216 203 214 235 217 278 305 329 291 326 338 338 297 304 240 173 61 41 15 21 31 8 74 48 70 347 352 22 24 24 29 29 23
153 87 210 162 163 156 203 187 199 181 205 230 199 209 243 253 260 264 262 269 269 296 304 307 311 313 278 351 234 5 357 359 17 21 346 46 35 348 18 29 22 7 29 25 11